Voltar ao catálogo

FENGYUN 1C DEB

AtivoSSO
NORAD 30058·DEBRIS·🇨🇳 China

Lançado May 10, 1999 de Taiyuan Satellite Launch Center

Loading…

Próximas Passagens (próximas 24 horas)

TLE

AtualizadoSource: Space-Track

Época: Sep 13, 2026, 22:45 UTC

1 30058U 99025PK  26256.94849803  .00000369  00000-0  48829-3 0  9999
2 30058  99.6554 257.3878 0314327 188.7322 200.2818 13.48571158965573

Acompanhe FENGYUN 1C DEB em tempo real com AllMySat

Download on the App Store